This demonstration page uses our WeatherBlox Daily Observations layout. Learn more.

Left ArrowRight Arrow

40.92945, -100.16068

Hourly Observations for October 23, 2016

Temp ( °F °C ) Dew Point ( °F °C ) Humidity (%) Winds ( mph kmh ) Pressure ( in mb ) Visibility ( mi km ) Precip ( " mm )
12:15 am 00:15 Clear 47 8.4 37 2.6 67 67 N N/A 29.91 1013 10 16 N/A
12:35 am 00:35 Clear 44 6.8 36 2.1 72 72 N N/A 29.91 1013 10 16 N/A
12:55 am 00:55 Clear 44 6.8 37 2.7 75 75 N N/A 29.91 1013 10 16 N/A
1:15 am 01:15 Clear 43 6.3 36 2.3 76 76 N 7 11 29.94 1014 10 16 N/A
1:35 am 01:35 Clear 44 6.6 37 2.5 75 75 NNW 9 15 29.97 1015 10 16 N/A
1:55 am 01:55 Clear 46 7.9 37 3 71 71 N 5 7 29.97 1015 10 16 N/A
2:15 am 02:15 Clear 45 7.1 37 2.9 75 75 NW 9 15 29.97 1015 10 16 N/A
2:35 am 02:35 Clear 45 7 37 3 76 76 NW 9 15 30.00 1016 10 16 N/A
2:55 am 02:55 Clear 52 11.1 37 2.9 57 57 NNW 7 11 29.97 1015 10 16 N/A
3:15 am 03:15 Clear 57 13.7 36 2 45 45 WNW 3 6 29.94 1014 10 16 N/A
3:35 am 03:35 Clear 56 13.5 36 2 46 46 N 8 13 29.97 1015 10 16 N/A
3:55 am 03:55 Clear 54 12.4 35 1.9 49 49 NW 8 13 30.00 1016 10 16 N/A
4:15 am 04:15 Clear 56 13.1 35 1.7 46 46 NNW 9 15 30.00 1016 10 16 N/A
4:35 am 04:35 Clear 55 12.6 35 1.9 48 48 NNW 10 17 30.00 1016 10 16 N/A
4:55 am 04:55 Clear 54 12.1 36 2.4 52 52 N 9 15 30.03 1017 10 16 N/A
5:15 am 05:15 Clear 53 11.9 37 2.6 53 53 N 9 15 30.03 1017 10 16 N/A
5:35 am 05:35 Clear 53 11.5 36 2.4 54 54 N 8 13 30.03 1017 10 16 N/A
5:55 am 05:55 Clear 53 11.4 35 1.7 52 52 N 8 13 30.03 1017 10 16 N/A
6:15 am 06:15 Clear 52 11 35 1.4 52 52 N 10 17 30.03 1017 10 16 N/A
6:35 am 06:35 Clear 51 10.6 34 1.2 53 53 N 7 11 30.03 1017 10 16 N/A
6:55 am 06:55 Clear 51 10.6 34 1.3 53 53 N 8 13 30.06 1018 10 16 N/A
7:15 am 07:15 Clear 50 10.2 35 1.6 55 55 N 10 17 30.09 1019 10 16 N/A
7:35 am 07:35 Clear 50 10 35 1.7 57 57 N 12 19 30.12 1020 10 16 N/A
7:55 am 07:55 Clear 49 9.6 36 2 59 59 N 9 15 30.12 1020 10 16 N/A
8:15 am 08:15 Sunny 49 9.5 36 2 60 60 N 12 19 30.12 1020 10 16 N/A
8:35 am 08:35 Sunny 49 9.6 36 2 59 59 N 9 15 30.12 1020 10 16 N/A
8:55 am 08:55 Sunny 50 10.1 36 2 57 57 N 9 15 30.15 1021 10 16 N/A
9:15 am 09:15 Sunny 52 11 36 2 54 54 N 9 15 30.15 1021 10 16 N/A
9:35 am 09:35 Sunny 54 12 35 1.6 49 49 N 9 15 30.15 1021 10 16 N/A
9:55 am 09:55 Sunny 55 12.5 33 0.8 45 45 NNE 10 17 30.15 1021 10 16 N/A
10:15 am 10:15 Sunny 55 12.5 33 0.8 45 45 N 12 19 30.15 1021 10 16 N/A
10:35 am 10:35 Sunny 56 13.1 33 0.5 42 42 N 14 22 30.15 1021 10 16 N/A
10:55 am 10:55 Sunny 57 13.8 33 0.6 41 41 N 9 15 30.18 1022 10 16 N/A
11:15 am 11:15 Sunny 58 14.5 33 0.5 39 39 N 10 17 30.18 1022 10 16 N/A
11:35 am 11:35 Sunny 59 15 31 -0.4 35 35 NNE 12 19 30.15 1021 10 16 N/A
11:55 am 11:55 Sunny 60 15.5 31 -0.5 34 34 NE 10 17 30.15 1021 10 16 N/A
12:15 pm 12:15 Sunny 61 16.3 31 -0.3 33 33 NNE 14 22 30.15 1021 10 16 N/A
12:35 pm 12:35 Sunny 63 17 31 -0.5 31 31 N 14 22 30.15 1021 10 16 N/A
12:55 pm 12:55 Sunny 64 18 30 -1.3 27 27 NNE 10 17 30.15 1021 10 16 N/A
1:15 pm 13:15 Sunny 65 18.3 31 -0.7 28 28 NNE 9 15 30.12 1020 10 16 N/A
1:35 pm 13:35 Sunny 66 18.7 29 -1.4 26 26 NE 12 19 30.09 1019 10 16 N/A
1:55 pm 13:55 Sunny 67 19.4 29 -1.5 24 24 NE 12 19 30.09 1019 10 16 N/A
2:15 pm 14:15 Sunny 68 19.9 29 -1.6 24 24 NNE 12 19 30.09 1019 10 16 N/A
2:35 pm 14:35 Sunny 68 20 29 -1.5 24 24 NNE 12 19 30.09 1019 10 16 N/A
2:55 pm 14:55 Sunny 68 19.8 30 -1.1 25 25 NNE 9 15 30.09 1019 7 11 N/A
3:15 pm 15:15 Sunny 68 20.2 29 -1.5 23 23 NE 8 13 30.09 1019 10 16 N/A
3:35 pm 15:35 Sunny 69 20.6 29 -1.6 23 23 NNE 9 15 30.09 1019 10 16 N/A
3:55 pm 15:55 Sunny 69 20.4 28 -2.1 22 22 NNE 7 11 30.09 1019 10 16 N/A
4:15 pm 16:15 Sunny 69 20.5 28 -2.5 21 21 NNE 8 13 30.09 1019 10 16 N/A
4:35 pm 16:35 Sunny 69 20.6 28 -2.3 21 21 ENE 6 9 30.09 1019 10 16 N/A
4:55 pm 16:55 Sunny 69 20.4 29 -1.8 22 22 ENE 7 11 30.09 1019 10 16 N/A
5:15 pm 17:15 Sunny 66 19 29 -1.6 25 25 NE 7 11 30.12 1020 10 16 N/A
5:35 pm 17:35 Sunny 65 18.1 31 -0.4 29 29 ENE 6 9 30.15 1021 10 16 N/A
5:55 pm 17:55 Sunny 61 16.2 34 1 36 36 E 6 9 30.15 1021 10 16 N/A
6:15 pm 18:15 Sunny 60 15.4 32 0.2 36 36 E 5 7 30.15 1021 10 16 N/A
6:35 pm 18:35 Sunny 60 15.4 29 -1.5 32 32 ENE 6 9 30.15 1021 10 16 N/A
6:55 pm 18:55 Clear 57 14 29 -1.7 34 34 E 6 9 30.18 1022 10 16 N/A
7:15 pm 19:15 Clear 55 12.5 29 -1.7 38 38 ENE 5 7 30.18 1022 10 16 N/A
7:35 pm 19:35 Clear 54 12 28 -2.2 37 37 ENE 7 11 30.18 1022 10 16 N/A
7:55 pm 19:55 Clear 52 10.9 28 -2.1 41 41 ENE 7 11 30.24 1024 10 16 N/A
8:15 pm 20:15 Clear 50 9.8 28 -2 44 44 ENE 6 9 30.24 1024 10 16 N/A
8:35 pm 20:35 Clear 49 9.5 28 -2 45 45 E 7 11 30.24 1024 10 16 N/A
8:55 pm 20:55 Clear 47 8.2 29 -1.5 51 51 ENE 6 9 30.27 1025 10 16 N/A
9:15 pm 21:15 Clear 46 7.7 29 -1.7 52 52 ENE 6 9 30.27 1025 10 16 N/A
9:35 pm 21:35 Clear 45 7.1 29 -1.5 55 55 E 6 9 30.27 1025 10 16 N/A
9:55 pm 21:55 Clear 45 7 29 -1.6 55 55 ENE 6 9 30.27 1025 10 16 N/A
10:15 pm 22:15 Clear 44 6.6 29 -1.5 57 57 ENE 6 9 30.27 1025 10 16 N/A
10:35 pm 22:35 Clear 44 6.7 29 -1.5 56 56 ENE 3 6 30.30 1026 10 16 N/A
10:55 pm 22:55 Clear 44 6.5 29 -1.6 57 57 N N/A 30.30 1026 10 16 N/A
11:15 pm 23:15 Clear 41 5.2 29 -1.6 62 62 N N/A 30.33 1027 10 16 N/A
11:35 pm 23:35 Clear 41 4.9 29 -1.6 63 63 N N/A 30.33 1027 10 16 N/A
11:55 pm 23:55 Clear 43 6.3 29 -1.7 57 57 N N/A 30.30 1026 10 16 N/A

Powered by AerisWeather